Regional Weather Roundup
Issued by NWS Sterling, VA

Home | Current Version | Previous Version | Graphics & Text | Print | Product List | Glossary On
Versions: 1 2 3 4 5 6 7 8 9 10 11 12 13 14 15 16 17 18 19 20 21 22 23 24 25 26 27
000
ASUS41 KLWX 252110
RWRLWX

REGIONAL WEATHER ROUNDUP
NATIONAL WEATHER SERVICE BALTIMORE MD/WASHINGTON DC
500 PM EDT THU MAY 25 2017

Note: "FAIR" indicates few or no clouds below 12,000 feet
with no significant weather and/or obstructions to visibility.
 TC=TEMPERATURE CELSIUS

 * =Non NWS site. Station does not report precipitation (e.g. rain,
    snow, etc.), thunder, or fog.

DCZ001-MDZ009-015-VAZ040>042-051-053>054-252200-
WASHINGTON METRO

CITY           SKY/WX    TMP DP  RH WIND       PRES   REMARKS
WASHINGTON NAT CLOUDY    73  58  59 SW8       29.44S THUNDER
DULLES         CLOUDY    70  58  65 CALM      29.43F
ANDREWS AFB    CLOUDY    71  59  65 S6        29.44R
FT BELVOIR     LGT RAIN  70  61  73 SW6       29.44S
QUANTICO       TSTM      66  60  81 SE3       29.51R VSB 1/2
COLLEGE PARK*  MOSUNNY   73  58  58 SE6       29.43S
LEESBURG*      TSTM      68  61  77 W20       29.46R
MANASSAS*      LGT RAIN  63  57  82 S9        29.45S
GAITHERSBURG*  PTSUNNY   70  59  68 CALM      29.45F

$$

MDZ006>007-011-014-252200-
BALTIMORE METRO

CITY           SKY/WX    TMP DP  RH WIND       PRES   REMARKS
BWI AIRPORT    PTSUNNY   73  60  63 CALM      29.43F
MD SCIENCE CTR   N/A     74  60  61 MISG      29.43F
MARTIN STATE   PTSUNNY   73  66  78 E7        29.45F
ANNAPOLIS      PTSUNNY   71  64  78 E10       29.43F
FORT MEADE*    MOSUNNY   72  59  64 CALM      29.45F

$$

MDZ012-015-019>023-252200-
MARYLAND EASTERN SHORE

CITY           SKY/WX    TMP DP  RH WIND       PRES   REMARKS
OCEAN CITY     PTSUNNY   67  63  87 SW9       29.48F
SALISBURY      CLOUDY    75  62  64 SW9       29.46R
BAY BRIDGE AP* MOSUNNY   77  61  57 S6        29.44F
CAMBRIDGE*     PTSUNNY   75  61  60 S12       29.45R
EASTON*        PTSUNNY   75  63  64 NW6       29.48F

$$

MDZ017>025-252200-
SOUTHERN MARYLAND

CITY           SKY/WX    TMP DP  RH WIND       PRES   REMARKS
PATUXENT RIVER PTSUNNY   71  67  87 SE15      29.43F
ST INIGOES     CLOUDY    75  60  59 S6        29.43S THUNDER
LEONARDTOWN*   MOSUNNY   77  57  50 SE9       29.44F

$$

MDZ003>005-252200-
NORTH CENTRAL MARYLAND

CITY           SKY/WX    TMP DP  RH WIND       PRES   REMARKS
FREDERICK*     PTSUNNY   72  63  73 NE3       29.48F THUNDER
HAGERSTOWN APT CLOUDY    66  57  72 E3        29.47S
WESTMINSTER*   PTSUNNY   70  59  68 W3        29.47S

$$

MDZ501>502-252200-
WESTERN MARYLAND

CITY           SKY/WX    TMP DP  RH WIND       PRES   REMARKS
OAKLAND*         N/A     61  46  59 W10       29.52R
CUMBERLAND*    CLOUDY    66  55  68 CALM      29.50S

$$

VAZ025>031-252200-
SHENANDOAH VALLEY

CITY           SKY/WX    TMP DP  RH WIND       PRES   REMARKS
WINCHESTER*    DRIZZLE   59  59 100 NE3         N/A
FRONT ROYAL*   CLOUDY    61  57  88 N7        29.46R
LURAY*         TSTM      59  55  88 N12G20    29.46R
NEW MARKET*    CLOUDY    63  55  74 NE15      29.46R
STAUNTON*      SUNNY     70  51  50 SW12      29.48R
WAYNESBORO*    CLOUDY    69  52  54 SW14G20   29.49R

$$

WVZ021-048>050-054>055-252200-
EASTERN WEST VIRGINIA PANHANDLE

CITY           SKY/WX    TMP DP  RH WIND       PRES   REMARKS
MARTINSBURG    LGT RAIN  61  59  93 SW5       29.47R FOG
PETERSBURG*    CLOUDY    65  62  88 SE5       29.48R

$$

VAZ036>039-050-252200-
CENTRAL FOOTHILLS

CITY           SKY/WX    TMP DP  RH WIND       PRES   REMARKS
CHARLOTTESVILL CLOUDY    71  59  65 S9        29.45F
CULPEPER*      CLOUDY    61  59  92 CALM      29.47R
ORANGE*        TSTM      61  59  94 CALM      29.46R
GORDONSVILLE*  CLOUDY    66  62  87 SW5       29.45S
WARRENTON*     CLOUDY    60  54  81 CALM      29.44F

$$

VAZ055>057-252200-
NORTH AND CENTRAL PIEDMONT

CITY           SKY/WX    TMP DP  RH WIND       PRES   REMARKS
FREDERICKSBRG* CLOUDY    64  61  90 W12       29.47R
STAFFORD*      TSTM      63  58  82 W9G22     29.51R

$$

NCZ024-NYZ072-PAZ021-071-VAZ022-071-252200-
OTHER REGIONAL OBSERVATIONS

CITY           SKY/WX    TMP DP  RH WIND       PRES   REMARKS
NEW YORK CITY  CLOUDY    58  57  97 NE10G20   29.56F FOG
PHILADELPHIA   CLOUDY    66  61  84 NE10      29.47F
PITTSBURGH     PTSUNNY   65  56  72 W12G20    29.47S
ROANOKE        CLOUDY    64  50  60 SW14G23   29.58R
RICHMOND       PTSUNNY   67  61  81 SW7       29.46F
RALEIGH        MOSUNNY   73  56  54 SW20G32   29.58R

$$

ANZ530>537-252200-
MARINE OBSERVATIONS

STATION/POSITION TIME  TEMP    WIND        PRES
                       AIR SEA DIR/SP/G
                 (UTC) (F)     (DEG/KT/KT) (MB)
THOMAS PT LIGHT  2100   71 64  110/  8/  8   N/A
BALT KEY BRIDGE  2048   70     130/  4/  4  996.6F
COVE POINT       2048   69     150/ 14/ 19  996.9F
LEWISETTA        2048   74 66  190/ 11/ 13  996.8R
SOLOMONS ISLAND  2048   70 67  130/ 16/ 19   N/A
PINEY POINT      2048          200/ 14/ 15   N/A

$$





USA.gov is the U.S. government's official web portal to all federal, state and local government web resources and services.